Year,Month,Day,Hour,Minute,Value (Times are PST for temperature in C)
2008,05,16,00,00,9.90
2008,05,16,00,01,9.90
2008,05,16,00,02,9.90
2008,05,16,00,03,9.90
2008,05,16,00,04,9.90
2008,05,16,00,05,9.90
2008,05,16,00,06,9.90
2008,05,16,00,07,9.90
2008,05,16,00,08,9.90
2008,05,16,00,09,9.80
2008,05,16,00,10,9.80
2008,05,16,00,11,9.90
2008,05,16,00,12,9.90
2008,05,16,00,13,9.90
2008,05,16,00,14,9.90
2008,05,16,00,15,9.90
2008,05,16,00,16,9.90
2008,05,16,00,17,10.00
2008,05,16,00,18,10.00
2008,05,16,00,19,10.00
2008,05,16,00,20,10.00
2008,05,16,00,21,9.90
2008,05,16,00,22,9.90
2008,05,16,00,23,9.90
2008,05,16,00,24,9.90
2008,05,16,00,25,9.90
2008,05,16,00,26,10.00
2008,05,16,00,27,10.00
2008,05,16,00,28,10.00
2008,05,16,00,29,9.90
2008,05,16,00,30,9.90
2008,05,16,00,31,9.90
2008,05,16,00,32,9.90
2008,05,16,00,33,9.80
2008,05,16,00,34,9.80
2008,05,16,00,35,9.80
2008,05,16,00,36,9.80
2008,05,16,00,37,9.90
2008,05,16,00,38,9.90
2008,05,16,00,39,9.90
2008,05,16,00,40,9.80
2008,05,16,00,41,9.80
2008,05,16,00,42,9.80
2008,05,16,00,43,9.80
2008,05,16,00,44,9.80
2008,05,16,00,45,9.80
2008,05,16,00,46,9.90
2008,05,16,00,47,9.90
2008,05,16,00,48,9.90
2008,05,16,00,49,9.80
2008,05,16,00,50,9.80
2008,05,16,00,51,9.80
2008,05,16,00,52,9.80
2008,05,16,00,53,9.90
2008,05,16,00,54,9.90
2008,05,16,00,55,10.00
2008,05,16,00,56,10.00
2008,05,16,00,57,10.00
2008,05,16,00,58,9.90
2008,05,16,00,59,9.90
2008,05,16,01,00,9.80
2008,05,16,01,01,9.80
2008,05,16,01,02,9.80
2008,05,16,01,03,9.80
2008,05,16,01,04,9.90
2008,05,16,01,05,9.90
2008,05,16,01,06,9.90
2008,05,16,01,07,9.80
2008,05,16,01,08,9.80
2008,05,16,01,09,9.70
2008,05,16,01,10,9.70
2008,05,16,01,11,9.80
2008,05,16,01,12,9.80
2008,05,16,01,13,9.80
2008,05,16,01,14,9.80
2008,05,16,01,15,9.80
2008,05,16,01,16,9.90
2008,05,16,01,17,9.80
2008,05,16,01,18,9.80
2008,05,16,01,19,9.80
2008,05,16,01,20,9.70
2008,05,16,01,21,9.70
2008,05,16,01,22,9.70
2008,05,16,01,23,9.70
2008,05,16,01,24,9.70
2008,05,16,01,25,9.70
2008,05,16,01,26,9.80
2008,05,16,01,27,9.80
2008,05,16,01,28,9.80
2008,05,16,01,29,9.80
2008,05,16,01,30,9.80
2008,05,16,01,31,9.80
2008,05,16,01,32,9.80
2008,05,16,01,33,9.80
2008,05,16,01,34,9.80
2008,05,16,01,35,9.80
2008,05,16,01,36,9.80
2008,05,16,01,37,9.70
2008,05,16,01,38,9.70
2008,05,16,01,39,9.70
2008,05,16,01,40,9.70
2008,05,16,01,41,9.70
2008,05,16,01,42,9.80
2008,05,16,01,43,9.80
2008,05,16,01,44,9.80
2008,05,16,01,45,9.80
2008,05,16,01,46,9.80
2008,05,16,01,47,9.80
2008,05,16,01,48,9.80
2008,05,16,01,49,9.80
2008,05,16,01,50,9.70
2008,05,16,01,51,9.70
2008,05,16,01,52,9.70
2008,05,16,01,53,9.70
2008,05,16,01,54,9.60
2008,05,16,01,55,9.60
2008,05,16,01,56,9.50
2008,05,16,01,57,9.50
2008,05,16,01,58,9.50
2008,05,16,01,59,9.50
2008,05,16,02,00,9.60
2008,05,16,02,01,9.60
2008,05,16,02,02,9.60
2008,05,16,02,03,9.60
2008,05,16,02,04,9.60
2008,05,16,02,05,9.60
2008,05,16,02,06,9.50
2008,05,16,02,07,9.50
2008,05,16,02,08,9.40
2008,05,16,02,09,9.40
2008,05,16,02,10,9.40
2008,05,16,02,11,9.40
2008,05,16,02,12,9.40
2008,05,16,02,13,9.50
2008,05,16,02,14,9.50
2008,05,16,02,15,9.50
2008,05,16,02,16,9.50
2008,05,16,02,17,9.60
2008,05,16,02,18,9.60
2008,05,16,02,19,9.60
2008,05,16,02,20,9.60
2008,05,16,02,21,9.60
2008,05,16,02,22,9.60
2008,05,16,02,23,9.60
2008,05,16,02,24,9.60
2008,05,16,02,25,9.60
2008,05,16,02,26,9.60
2008,05,16,02,27,9.60
2008,05,16,02,28,9.60
2008,05,16,02,29,9.50
2008,05,16,02,30,9.50
2008,05,16,02,31,9.60
2008,05,16,02,32,9.60
2008,05,16,02,33,9.60
2008,05,16,02,34,9.60
2008,05,16,02,35,9.60
2008,05,16,02,36,9.60
2008,05,16,02,37,9.60
2008,05,16,02,38,9.60
2008,05,16,02,39,9.50
2008,05,16,02,40,9.40
2008,05,16,02,41,9.40
2008,05,16,02,42,9.40
2008,05,16,02,43,9.50
2008,05,16,02,44,9.50
2008,05,16,02,45,9.50
2008,05,16,02,46,9.50
2008,05,16,02,47,9.60
2008,05,16,02,48,9.60
2008,05,16,02,49,9.60
2008,05,16,02,50,9.60
2008,05,16,02,51,9.60
2008,05,16,02,52,9.50
2008,05,16,02,53,9.40
2008,05,16,02,54,9.50
2008,05,16,02,55,9.50
2008,05,16,02,56,9.50
2008,05,16,02,57,9.50
2008,05,16,02,58,9.40
2008,05,16,02,59,9.50
2008,05,16,03,00,9.50
2008,05,16,03,01,9.50
2008,05,16,03,02,9.50
2008,05,16,03,03,9.50
2008,05,16,03,04,9.50
2008,05,16,03,05,9.50
2008,05,16,03,06,9.40
2008,05,16,03,07,9.40
2008,05,16,03,08,9.40
2008,05,16,03,09,9.40
2008,05,16,03,10,9.40
2008,05,16,03,11,9.40
2008,05,16,03,12,9.40
2008,05,16,03,13,9.40
2008,05,16,03,14,9.40
2008,05,16,03,15,9.30
2008,05,16,03,16,9.30
2008,05,16,03,17,9.30
2008,05,16,03,18,9.30
2008,05,16,03,19,9.40
2008,05,16,03,20,9.40
2008,05,16,03,21,9.40
2008,05,16,03,22,9.40
2008,05,16,03,23,9.40
2008,05,16,03,24,9.30
2008,05,16,03,25,9.30
2008,05,16,03,26,9.40
2008,05,16,03,27,9.40
2008,05,16,03,28,9.40
2008,05,16,03,29,9.40
2008,05,16,03,30,9.40
2008,05,16,03,31,9.30
2008,05,16,03,32,9.30
2008,05,16,03,33,9.30
2008,05,16,03,34,9.20
2008,05,16,03,35,9.20
2008,05,16,03,36,9.20
2008,05,16,03,37,9.20
2008,05,16,03,38,9.20
2008,05,16,03,39,9.30
2008,05,16,03,40,9.30
2008,05,16,03,41,9.30
2008,05,16,03,42,9.30
2008,05,16,03,43,9.30
2008,05,16,03,44,9.30
2008,05,16,03,45,9.30
2008,05,16,03,46,9.30
2008,05,16,03,47,9.30
2008,05,16,03,48,9.30
2008,05,16,03,49,9.30
2008,05,16,03,50,9.30
2008,05,16,03,51,9.30
2008,05,16,03,52,9.30
2008,05,16,03,53,9.30
2008,05,16,03,54,9.30
2008,05,16,03,55,9.30
2008,05,16,03,56,9.30
2008,05,16,03,57,9.20
2008,05,16,03,58,9.20
2008,05,16,03,59,9.20
2008,05,16,04,00,9.20
2008,05,16,04,01,9.20
2008,05,16,04,02,9.20
2008,05,16,04,03,9.30
2008,05,16,04,04,9.30
2008,05,16,04,05,9.30
2008,05,16,04,06,9.30
2008,05,16,04,07,9.30
2008,05,16,04,08,9.30
2008,05,16,04,09,9.30
2008,05,16,04,10,9.20
2008,05,16,04,11,9.20
2008,05,16,04,12,9.20
2008,05,16,04,13,9.20
2008,05,16,04,14,9.20
2008,05,16,04,15,9.20
2008,05,16,04,16,9.20
2008,05,16,04,17,9.20
2008,05,16,04,18,9.30
2008,05,16,04,19,9.30
2008,05,16,04,20,9.30
2008,05,16,04,21,9.30
2008,05,16,04,22,9.30
2008,05,16,04,23,9.20
2008,05,16,04,24,9.20
2008,05,16,04,25,9.20
2008,05,16,04,26,9.20
2008,05,16,04,27,9.20
2008,05,16,04,28,9.20
2008,05,16,04,29,9.20
2008,05,16,04,30,9.20
2008,05,16,04,31,9.20
2008,05,16,04,32,9.20
2008,05,16,04,33,9.20
2008,05,16,04,34,9.20
2008,05,16,04,35,9.20
2008,05,16,04,36,9.20
2008,05,16,04,37,9.20
2008,05,16,04,38,9.20
2008,05,16,04,39,9.10
2008,05,16,04,40,9.10
2008,05,16,04,41,9.10
2008,05,16,04,42,9.00
2008,05,16,04,43,9.00
2008,05,16,04,44,8.90
2008,05,16,04,45,9.00
2008,05,16,04,46,9.00
2008,05,16,04,47,9.00
2008,05,16,04,48,8.90
2008,05,16,04,49,9.00
2008,05,16,04,50,9.00
2008,05,16,04,51,9.00
2008,05,16,04,52,9.00
2008,05,16,04,53,9.00
2008,05,16,04,54,9.00
2008,05,16,04,55,8.90
2008,05,16,04,56,8.90
2008,05,16,04,57,8.80
2008,05,16,04,58,8.80
2008,05,16,04,59,8.90
2008,05,16,05,00,9.00
2008,05,16,05,01,9.10
2008,05,16,05,02,9.10
2008,05,16,05,03,9.20
2008,05,16,05,04,9.20
2008,05,16,05,05,9.20
2008,05,16,05,06,9.10
2008,05,16,05,07,9.00
2008,05,16,05,08,9.00
2008,05,16,05,09,8.90
2008,05,16,05,10,9.00
2008,05,16,05,11,9.10
2008,05,16,05,12,9.10
2008,05,16,05,13,9.20
2008,05,16,05,14,9.20
2008,05,16,05,15,9.20
2008,05,16,05,16,9.20
2008,05,16,05,17,9.20
2008,05,16,05,18,9.10
2008,05,16,05,19,9.10
2008,05,16,05,20,9.00
2008,05,16,05,21,8.90
2008,05,16,05,22,8.90
2008,05,16,05,23,8.90
2008,05,16,05,24,8.90
2008,05,16,05,25,8.90
2008,05,16,05,26,9.00
2008,05,16,05,27,9.00
2008,05,16,05,28,9.10
2008,05,16,05,29,9.10
2008,05,16,05,30,9.10
2008,05,16,05,31,9.10
2008,05,16,05,32,9.10
2008,05,16,05,33,9.00
2008,05,16,05,34,9.00
2008,05,16,05,35,9.10
2008,05,16,05,36,9.10
2008,05,16,05,37,9.10
2008,05,16,05,38,9.10
2008,05,16,05,39,9.10
2008,05,16,05,40,9.10
2008,05,16,05,41,9.10
2008,05,16,05,42,9.00
2008,05,16,05,43,9.00
2008,05,16,05,44,9.00
2008,05,16,05,45,9.00
2008,05,16,05,46,9.00
2008,05,16,05,47,9.00
2008,05,16,05,48,9.10
2008,05,16,05,49,9.10
2008,05,16,05,50,9.00
2008,05,16,05,51,9.00
2008,05,16,05,52,9.00
2008,05,16,05,53,9.00
2008,05,16,05,54,9.10
2008,05,16,05,55,9.10
2008,05,16,05,56,9.10
2008,05,16,05,57,9.10
2008,05,16,05,58,9.10
2008,05,16,05,59,9.10
2008,05,16,06,00,9.00
2008,05,16,06,01,9.00
2008,05,16,06,02,9.00
2008,05,16,06,03,9.00
2008,05,16,06,04,9.10
2008,05,16,06,05,9.10
2008,05,16,06,06,9.10
2008,05,16,06,07,9.10
2008,05,16,06,08,9.00
2008,05,16,06,09,9.00
2008,05,16,06,10,9.10
2008,05,16,06,11,9.10
2008,05,16,06,12,9.10
2008,05,16,06,13,9.00
2008,05,16,06,14,9.00
2008,05,16,06,15,8.90
2008,05,16,06,16,8.90
2008,05,16,06,17,9.00
2008,05,16,06,18,9.00
2008,05,16,06,19,9.00
2008,05,16,06,20,9.10
2008,05,16,06,21,9.10
2008,05,16,06,22,9.00
2008,05,16,06,23,9.00
2008,05,16,06,24,8.90
2008,05,16,06,25,8.90
2008,05,16,06,26,8.90
2008,05,16,06,27,8.90
2008,05,16,06,28,9.00
2008,05,16,06,29,9.10
2008,05,16,06,30,9.10
2008,05,16,06,31,9.20
2008,05,16,06,32,9.20
2008,05,16,06,33,9.30
2008,05,16,06,34,9.30
2008,05,16,06,35,9.30
2008,05,16,06,36,9.20
2008,05,16,06,37,9.20
2008,05,16,06,38,9.20
2008,05,16,06,39,9.20
2008,05,16,06,40,9.20
2008,05,16,06,41,9.20
2008,05,16,06,42,9.20
2008,05,16,06,43,9.30
2008,05,16,06,44,9.30
2008,05,16,06,45,9.30
2008,05,16,06,46,9.30
2008,05,16,06,47,9.30
2008,05,16,06,48,9.30
2008,05,16,06,49,9.30
2008,05,16,06,50,9.30
2008,05,16,06,51,9.20
2008,05,16,06,52,9.20
2008,05,16,06,53,9.30
2008,05,16,06,54,9.30
2008,05,16,06,55,9.30
2008,05,16,06,56,9.30
2008,05,16,06,57,9.30
2008,05,16,06,58,9.30
2008,05,16,06,59,9.30
2008,05,16,07,00,9.40
2008,05,16,07,01,9.40
2008,05,16,07,02,9.50
2008,05,16,07,03,9.50
2008,05,16,07,04,9.50
2008,05,16,07,05,9.50
2008,05,16,07,06,9.50
2008,05,16,07,07,9.50
2008,05,16,07,08,9.60
2008,05,16,07,09,9.60
2008,05,16,07,10,9.60
2008,05,16,07,11,9.60
2008,05,16,07,12,9.60
2008,05,16,07,13,9.70
2008,05,16,07,14,9.70
2008,05,16,07,15,9.70
2008,05,16,07,16,9.70
2008,05,16,07,17,9.80
2008,05,16,07,18,9.80
2008,05,16,07,19,9.80
2008,05,16,07,20,9.90
2008,05,16,07,21,9.90
2008,05,16,07,22,10.00
2008,05,16,07,23,10.10
2008,05,16,07,24,10.10
2008,05,16,07,25,10.20
2008,05,16,07,26,10.30
2008,05,16,07,27,10.30
2008,05,16,07,28,10.40
2008,05,16,07,29,10.50
2008,05,16,07,30,10.50
2008,05,16,07,31,10.50
2008,05,16,07,32,10.50
2008,05,16,07,33,10.60
2008,05,16,07,34,10.60
2008,05,16,07,35,10.70
2008,05,16,07,36,10.70
2008,05,16,07,37,10.70
2008,05,16,07,38,10.80
2008,05,16,07,39,10.80
2008,05,16,07,40,10.90
2008,05,16,07,41,10.90
2008,05,16,07,42,10.90
2008,05,16,07,43,11.00
2008,05,16,07,44,11.10
2008,05,16,07,45,11.10
2008,05,16,07,46,11.10
2008,05,16,07,47,11.10
2008,05,16,07,48,11.20
2008,05,16,07,49,11.20
2008,05,16,07,50,11.30
2008,05,16,07,51,11.30
2008,05,16,07,52,11.40
2008,05,16,07,53,11.40
2008,05,16,07,54,11.50
2008,05,16,07,55,11.60
2008,05,16,07,56,11.70
2008,05,16,07,57,11.80
2008,05,16,07,58,11.90
2008,05,16,07,59,11.90
2008,05,16,08,00,12.00
2008,05,16,08,01,12.10
2008,05,16,08,02,12.10
2008,05,16,08,03,12.20
2008,05,16,08,04,12.20
2008,05,16,08,05,12.20
2008,05,16,08,06,12.30
2008,05,16,08,07,12.30
2008,05,16,08,08,12.30
2008,05,16,08,09,12.30
2008,05,16,08,10,12.30
2008,05,16,08,11,12.40
2008,05,16,08,12,12.40
2008,05,16,08,13,12.40
2008,05,16,08,14,12.40
2008,05,16,08,15,12.40
2008,05,16,08,16,12.40
2008,05,16,08,17,12.40
2008,05,16,08,18,12.40
2008,05,16,08,19,12.30
2008,05,16,08,20,12.30
2008,05,16,08,21,12.30
2008,05,16,08,22,12.40
2008,05,16,08,23,12.40
2008,05,16,08,24,12.40
2008,05,16,08,25,12.40
2008,05,16,08,26,12.40
2008,05,16,08,27,12.50
2008,05,16,08,28,12.50
2008,05,16,08,29,12.50
2008,05,16,08,30,12.50
2008,05,16,08,31,12.60
2008,05,16,08,32,12.60
2008,05,16,08,33,12.60
2008,05,16,08,34,12.60
2008,05,16,08,35,12.70
2008,05,16,08,36,12.70
2008,05,16,08,37,12.80
2008,05,16,08,38,12.80
2008,05,16,08,39,12.80
2008,05,16,08,40,12.90
2008,05,16,08,41,12.90
2008,05,16,08,42,13.00
2008,05,16,08,43,13.00
2008,05,16,08,44,13.10
2008,05,16,08,45,13.20
2008,05,16,08,46,13.20
2008,05,16,08,47,13.30
2008,05,16,08,48,13.40
2008,05,16,08,49,13.50
2008,05,16,08,50,13.60
2008,05,16,08,51,13.60
2008,05,16,08,52,13.70
2008,05,16,08,53,13.80
2008,05,16,08,54,13.90
2008,05,16,08,55,14.00
2008,05,16,08,56,14.10
2008,05,16,08,57,14.20
2008,05,16,08,58,14.30
2008,05,16,08,59,14.40
2008,05,16,09,00,14.50
2008,05,16,09,01,14.60
2008,05,16,09,02,14.70
2008,05,16,09,03,14.80
2008,05,16,09,04,14.80
2008,05,16,09,05,14.90
2008,05,16,09,06,15.00
2008,05,16,09,07,15.00
2008,05,16,09,08,15.00
2008,05,16,09,09,15.10
2008,05,16,09,10,15.20
2008,05,16,09,11,15.30
2008,05,16,09,12,15.40
2008,05,16,09,13,15.40
2008,05,16,09,14,15.50
2008,05,16,09,15,15.60
2008,05,16,09,16,15.70
2008,05,16,09,17,15.80
2008,05,16,09,18,15.80
2008,05,16,09,19,15.80
2008,05,16,09,20,15.90
2008,05,16,09,21,15.90
2008,05,16,09,22,16.00
2008,05,16,09,23,16.00
2008,05,16,09,24,16.10
2008,05,16,09,25,16.10
2008,05,16,09,26,16.10
2008,05,16,09,27,16.20
2008,05,16,09,28,16.20
2008,05,16,09,29,16.30
2008,05,16,09,30,16.30
2008,05,16,09,31,16.30
2008,05,16,09,32,16.30
2008,05,16,09,33,16.30
2008,05,16,09,34,16.30
2008,05,16,09,35,16.30
2008,05,16,09,36,16.30
2008,05,16,09,37,16.30
2008,05,16,09,38,16.20
2008,05,16,09,39,16.30
2008,05,16,09,40,16.20
2008,05,16,09,41,16.20
2008,05,16,09,42,16.10
2008,05,16,09,43,16.10
2008,05,16,09,44,16.10
2008,05,16,09,45,16.10
2008,05,16,09,46,16.20
2008,05,16,09,47,16.20
2008,05,16,09,48,16.30
2008,05,16,09,49,16.30
2008,05,16,09,50,16.30
2008,05,16,09,51,16.30
2008,05,16,09,52,16.30
2008,05,16,09,53,16.40
2008,05,16,09,54,16.40
2008,05,16,09,55,16.40
2008,05,16,09,56,16.40
2008,05,16,09,57,16.40
2008,05,16,09,58,16.40
2008,05,16,09,59,16.30
2008,05,16,10,00,16.20
2008,05,16,10,01,16.20
2008,05,16,10,02,16.20
2008,05,16,10,03,16.20
2008,05,16,10,04,16.20
2008,05,16,10,05,16.30
2008,05,16,10,06,16.40
2008,05,16,10,07,16.40
2008,05,16,10,08,16.50
2008,05,16,10,09,16.60
2008,05,16,10,10,16.60
2008,05,16,10,11,16.70
2008,05,16,10,12,16.80
2008,05,16,10,13,16.70
2008,05,16,10,14,16.70
2008,05,16,10,15,16.70
2008,05,16,10,16,16.70
2008,05,16,10,17,16.70
2008,05,16,10,18,16.70
2008,05,16,10,19,16.70
2008,05,16,10,20,16.70
2008,05,16,10,21,16.70
2008,05,16,10,22,16.60
2008,05,16,10,23,16.60
2008,05,16,10,24,16.60
2008,05,16,10,25,16.60
2008,05,16,10,26,16.60
2008,05,16,10,27,16.50
2008,05,16,10,28,16.50
2008,05,16,10,29,16.50
2008,05,16,10,30,16.60
2008,05,16,10,31,16.60
2008,05,16,10,32,16.70
2008,05,16,10,33,16.70
2008,05,16,10,34,16.80
2008,05,16,10,35,16.90
2008,05,16,10,36,17.00
2008,05,16,10,37,17.10
2008,05,16,10,38,17.20
2008,05,16,10,39,17.20
2008,05,16,10,40,17.20
2008,05,16,10,41,17.20
2008,05,16,10,42,17.30
2008,05,16,10,43,17.30
2008,05,16,10,44,17.30
2008,05,16,10,45,17.30
2008,05,16,10,46,17.40
2008,05,16,10,47,17.50
2008,05,16,10,48,17.50
2008,05,16,10,49,17.40
2008,05,16,10,50,17.30
2008,05,16,10,51,17.30
2008,05,16,10,52,17.20
2008,05,16,10,53,17.20
2008,05,16,10,54,17.20
2008,05,16,10,55,17.20
2008,05,16,10,56,17.20
2008,05,16,10,57,17.10
2008,05,16,10,58,17.10
2008,05,16,10,59,17.10
2008,05,16,11,00,17.10
2008,05,16,11,01,17.20
2008,05,16,11,02,17.10
2008,05,16,11,03,17.10
2008,05,16,11,04,17.10
2008,05,16,11,05,17.10
2008,05,16,11,06,17.10
2008,05,16,11,07,17.20
2008,05,16,11,08,17.20
2008,05,16,11,09,17.20
2008,05,16,11,10,17.20
2008,05,16,11,11,17.20
2008,05,16,11,12,17.30
2008,05,16,11,13,17.30
2008,05,16,11,14,17.30
2008,05,16,11,15,17.40
2008,05,16,11,16,17.40
2008,05,16,11,17,17.40
2008,05,16,11,18,17.40
2008,05,16,11,19,17.40
2008,05,16,11,20,17.40
2008,05,16,11,21,17.40
2008,05,16,11,22,17.40
2008,05,16,11,23,17.40
2008,05,16,11,24,17.40
2008,05,16,11,25,17.40
2008,05,16,11,26,17.40
2008,05,16,11,27,17.40
2008,05,16,11,28,17.40
2008,05,16,11,29,17.40
2008,05,16,11,30,17.40
2008,05,16,11,31,17.40
2008,05,16,11,32,17.30
2008,05,16,11,33,17.30
2008,05,16,11,34,17.20
2008,05,16,11,35,17.10
2008,05,16,11,36,17.00
2008,05,16,11,37,16.90
2008,05,16,11,38,16.80
2008,05,16,11,39,16.80
2008,05,16,11,40,16.70
2008,05,16,11,41,16.80
2008,05,16,11,42,16.80
2008,05,16,11,43,16.70
2008,05,16,11,44,16.70
2008,05,16,11,45,16.80
2008,05,16,11,46,16.80
2008,05,16,11,47,16.80
2008,05,16,11,48,16.80
2008,05,16,11,49,16.80
2008,05,16,11,50,16.90
2008,05,16,11,51,16.90
2008,05,16,11,52,17.00
2008,05,16,11,53,17.10
2008,05,16,11,54,17.20
2008,05,16,11,55,17.30
2008,05,16,11,56,17.40
2008,05,16,11,57,17.40
2008,05,16,11,58,17.40
2008,05,16,11,59,17.30
2008,05,16,12,00,17.40
2008,05,16,12,01,17.40
2008,05,16,12,02,17.40
2008,05,16,12,03,17.50
2008,05,16,12,04,17.50
2008,05,16,12,05,17.50
2008,05,16,12,06,17.60
2008,05,16,12,07,17.60
2008,05,16,12,08,17.80
2008,05,16,12,09,17.80
2008,05,16,12,10,17.80
2008,05,16,12,11,17.90
2008,05,16,12,12,17.90
2008,05,16,12,13,17.90
2008,05,16,12,14,17.90
2008,05,16,12,15,18.00
2008,05,16,12,16,18.00
2008,05,16,12,17,18.10
2008,05,16,12,18,18.20
2008,05,16,12,19,18.20
2008,05,16,12,20,18.30
2008,05,16,12,21,18.30
2008,05,16,12,22,18.20
2008,05,16,12,23,18.10
2008,05,16,12,24,18.00
2008,05,16,12,25,18.10
2008,05,16,12,26,18.10
2008,05,16,12,27,18.10
2008,05,16,12,28,18.10
2008,05,16,12,29,18.10
2008,05,16,12,30,18.00
2008,05,16,12,31,17.90
2008,05,16,12,32,17.90
2008,05,16,12,33,17.80
2008,05,16,12,34,17.70
2008,05,16,12,35,17.50
2008,05,16,12,36,17.50
2008,05,16,12,37,17.40
2008,05,16,12,38,17.40
2008,05,16,12,39,17.40
2008,05,16,12,40,17.50
2008,05,16,12,41,17.50
2008,05,16,12,42,17.50
2008,05,16,12,43,17.50
2008,05,16,12,44,17.50
2008,05,16,12,45,17.40
2008,05,16,12,46,17.40
2008,05,16,12,47,17.50
2008,05,16,12,48,17.60
2008,05,16,12,49,17.60
2008,05,16,12,50,17.70
2008,05,16,12,51,17.70
2008,05,16,12,52,17.80
2008,05,16,12,53,17.90
2008,05,16,12,54,18.00
2008,05,16,12,55,18.10
2008,05,16,12,56,18.20
2008,05,16,12,57,18.30
2008,05,16,12,58,18.30
2008,05,16,12,59,18.30
2008,05,16,13,00,18.30
2008,05,16,13,01,18.30
2008,05,16,13,02,18.30
2008,05,16,13,03,18.20
2008,05,16,13,04,18.30
2008,05,16,13,05,18.30
2008,05,16,13,06,18.40
2008,05,16,13,07,18.30
2008,05,16,13,08,18.20
2008,05,16,13,09,18.20
2008,05,16,13,10,18.30
2008,05,16,13,11,18.30
2008,05,16,13,12,18.40
2008,05,16,13,13,18.50
2008,05,16,13,14,18.50
2008,05,16,13,15,18.60
2008,05,16,13,16,18.70
2008,05,16,13,17,18.70
2008,05,16,13,18,18.70
2008,05,16,13,19,18.80
2008,05,16,13,20,18.80
2008,05,16,13,21,18.90
2008,05,16,13,22,19.00
2008,05,16,13,23,19.10
2008,05,16,13,24,19.00
2008,05,16,13,25,19.10
2008,05,16,13,26,19.10
2008,05,16,13,27,19.20
2008,05,16,13,28,19.20
2008,05,16,13,29,19.20
2008,05,16,13,30,19.20
2008,05,16,13,31,19.20
2008,05,16,13,32,19.20
2008,05,16,13,33,19.10
2008,05,16,13,34,19.00
2008,05,16,13,35,19.00
2008,05,16,13,36,19.10
2008,05,16,13,37,19.20
2008,05,16,13,38,19.30
2008,05,16,13,39,19.30
2008,05,16,13,40,19.30
2008,05,16,13,41,19.40
2008,05,16,13,42,19.30
2008,05,16,13,43,19.30
2008,05,16,13,44,19.30
2008,05,16,13,45,19.40
2008,05,16,13,46,19.40
2008,05,16,13,47,19.40
2008,05,16,13,48,19.40
2008,05,16,13,49,19.60
2008,05,16,13,50,19.70
2008,05,16,13,51,19.70
2008,05,16,13,52,19.80
2008,05,16,13,53,19.90
2008,05,16,13,54,19.90
2008,05,16,13,55,19.90
2008,05,16,13,56,19.90
2008,05,16,13,57,19.80
2008,05,16,13,58,19.80
2008,05,16,13,59,19.70
2008,05,16,14,00,19.70
2008,05,16,14,01,19.80
2008,05,16,14,02,19.80
2008,05,16,14,03,19.80
2008,05,16,14,04,19.70
2008,05,16,14,05,19.70
2008,05,16,14,06,19.60
2008,05,16,14,07,19.50
2008,05,16,14,08,19.40
2008,05,16,14,09,19.30
2008,05,16,14,10,19.20
2008,05,16,14,11,19.20
2008,05,16,14,12,19.20
2008,05,16,14,13,19.20
2008,05,16,14,14,19.20
2008,05,16,14,15,19.20
2008,05,16,14,16,19.20
2008,05,16,14,17,19.30
2008,05,16,14,18,19.30
2008,05,16,14,19,19.20
2008,05,16,14,20,19.20
2008,05,16,14,21,19.10
2008,05,16,14,22,19.10
2008,05,16,14,23,19.00
2008,05,16,14,24,19.00
2008,05,16,14,25,19.10
2008,05,16,14,26,19.10
2008,05,16,14,27,19.10
2008,05,16,14,28,19.20
2008,05,16,14,29,19.20
2008,05,16,14,30,19.20
2008,05,16,14,31,19.20
2008,05,16,14,32,19.30
2008,05,16,14,33,19.40
2008,05,16,14,34,19.40
2008,05,16,14,35,19.50
2008,05,16,14,36,19.50
2008,05,16,14,37,19.70
2008,05,16,14,38,19.70
2008,05,16,14,39,19.80
2008,05,16,14,40,19.70
2008,05,16,14,41,19.60
2008,05,16,14,42,19.60
2008,05,16,14,43,19.60
2008,05,16,14,44,19.50
2008,05,16,14,45,19.40
2008,05,16,14,46,19.40
2008,05,16,14,47,19.40
2008,05,16,14,48,19.40
2008,05,16,14,49,19.40
2008,05,16,14,50,19.40
2008,05,16,14,51,19.40
2008,05,16,14,52,19.40
2008,05,16,14,53,19.40
2008,05,16,14,54,19.40
2008,05,16,14,55,19.40
2008,05,16,14,56,19.40
2008,05,16,14,57,19.40
2008,05,16,14,58,19.40
2008,05,16,14,59,19.40
2008,05,16,15,00,19.40
2008,05,16,15,01,19.40
2008,05,16,15,02,19.40
2008,05,16,15,03,19.50
2008,05,16,15,04,19.60
2008,05,16,15,05,19.60
2008,05,16,15,06,19.60
2008,05,16,15,07,19.50
2008,05,16,15,08,19.50
2008,05,16,15,09,19.40
2008,05,16,15,10,19.40
2008,05,16,15,11,19.50
2008,05,16,15,12,19.40
2008,05,16,15,13,19.50
2008,05,16,15,14,19.50
2008,05,16,15,15,19.50
2008,05,16,15,16,19.60
2008,05,16,15,17,19.60
2008,05,16,15,18,19.60
2008,05,16,15,19,19.50
2008,05,16,15,20,19.50
2008,05,16,15,21,19.40
2008,05,16,15,22,19.40
2008,05,16,15,23,19.40
2008,05,16,15,24,19.40
2008,05,16,15,25,19.40
2008,05,16,15,26,19.40
2008,05,16,15,27,19.50
2008,05,16,15,28,19.60
2008,05,16,15,29,19.70
2008,05,16,15,30,19.80
2008,05,16,15,31,19.90
2008,05,16,15,32,20.00
2008,05,16,15,33,20.10
2008,05,16,15,34,20.20
2008,05,16,15,35,20.20
2008,05,16,15,36,20.20
2008,05,16,15,37,20.20
2008,05,16,15,38,20.20
2008,05,16,15,39,20.20
2008,05,16,15,40,20.20
2008,05,16,15,41,20.20
2008,05,16,15,42,20.20
2008,05,16,15,43,20.30
2008,05,16,15,44,20.30
2008,05,16,15,45,20.30
2008,05,16,15,46,20.40
2008,05,16,15,47,20.50
2008,05,16,15,48,20.60
2008,05,16,15,49,20.60
2008,05,16,15,50,20.60
2008,05,16,15,51,20.60
2008,05,16,15,52,20.60
2008,05,16,15,53,20.60
2008,05,16,15,54,20.60
2008,05,16,15,55,20.70
2008,05,16,15,56,20.70
2008,05,16,15,57,20.70
2008,05,16,15,58,20.70
2008,05,16,15,59,20.70
2008,05,16,16,00,20.80
2008,05,16,16,01,20.80
2008,05,16,16,02,20.90
2008,05,16,16,03,21.00
2008,05,16,16,04,21.10
2008,05,16,16,05,21.20
2008,05,16,16,06,21.20
2008,05,16,16,07,21.30
2008,05,16,16,08,21.30
2008,05,16,16,09,21.40
2008,05,16,16,10,21.40
2008,05,16,16,11,21.40
2008,05,16,16,12,21.40
2008,05,16,16,13,21.50
2008,05,16,16,14,21.40
2008,05,16,16,15,21.40
2008,05,16,16,16,21.40
2008,05,16,16,17,21.30
2008,05,16,16,18,21.30
2008,05,16,16,19,21.30
2008,05,16,16,20,21.30
2008,05,16,16,21,21.30
2008,05,16,16,22,21.40
2008,05,16,16,23,21.40
2008,05,16,16,24,21.50
2008,05,16,16,25,21.60
2008,05,16,16,26,21.70
2008,05,16,16,27,21.70
2008,05,16,16,28,21.70
2008,05,16,16,29,21.70
2008,05,16,16,30,21.70
2008,05,16,16,31,21.70
2008,05,16,16,32,21.80
2008,05,16,16,33,21.80
2008,05,16,16,34,21.80
2008,05,16,16,35,21.80
2008,05,16,16,36,21.90
2008,05,16,16,37,21.90
2008,05,16,16,38,22.00
2008,05,16,16,39,22.00
2008,05,16,16,40,22.10
2008,05,16,16,41,22.10
2008,05,16,16,42,22.00
2008,05,16,16,43,21.90
2008,05,16,16,44,21.80
2008,05,16,16,45,21.70
2008,05,16,16,46,21.60
2008,05,16,16,47,21.60
2008,05,16,16,48,21.50
2008,05,16,16,49,21.40
2008,05,16,16,50,21.40
2008,05,16,16,51,21.40
2008,05,16,16,52,21.50
2008,05,16,16,53,21.50
2008,05,16,16,54,21.50
2008,05,16,16,55,21.60
2008,05,16,16,56,21.60
2008,05,16,16,57,21.60
2008,05,16,16,58,21.60
2008,05,16,16,59,21.60
2008,05,16,17,00,21.60
2008,05,16,17,01,21.60
2008,05,16,17,02,21.60
2008,05,16,17,03,21.50
2008,05,16,17,04,21.40
2008,05,16,17,05,21.40
2008,05,16,17,06,21.40
2008,05,16,17,07,21.40
2008,05,16,17,08,21.50
2008,05,16,17,09,21.60
2008,05,16,17,10,21.70
2008,05,16,17,11,21.70
2008,05,16,17,12,21.70
2008,05,16,17,13,21.80
2008,05,16,17,14,21.90
2008,05,16,17,15,22.00
2008,05,16,17,16,22.00
2008,05,16,17,17,22.00
2008,05,16,17,18,21.90
2008,05,16,17,19,21.80
2008,05,16,17,20,21.70
2008,05,16,17,21,21.70
2008,05,16,17,22,21.70
2008,05,16,17,23,21.70
2008,05,16,17,24,21.80
2008,05,16,17,25,21.80
2008,05,16,17,26,22.00
2008,05,16,17,27,22.10
2008,05,16,17,28,22.20
2008,05,16,17,29,22.10
2008,05,16,17,30,22.10
2008,05,16,17,31,22.10
2008,05,16,17,32,21.90
2008,05,16,17,33,21.80
2008,05,16,17,34,21.70
2008,05,16,17,35,21.50
2008,05,16,17,36,21.30
2008,05,16,17,37,21.10
2008,05,16,17,38,21.00